TimeCDT,TemperatureF,Dew PointF,Humidity,Sea Level PressureIn,VisibilityMPH,Wind Direction,Wind SpeedMPH,Gust SpeedMPH,PrecipitationIn,Events,Conditions,WindDirDegrees,DateUTC
12:58 AM,60,58,89,29.87,6,Calm,Calm,,,,Overcast,,2012-10-16 05:58:00
5:50 AM,57.2,55.4,94,30.15,10.0,Calm,Calm,-,N/A,,Mostly Cloudy,0,2012-10-16 10:50:00
6:48 AM,55.4,51.8,88,29.88,10.0,Calm,Calm,-,N/A,,Scattered Clouds,0,2012-10-16 11:48:00
6:55 AM,56,55,95,29.86,6,Calm,Calm,,,,Scattered Clouds,,2012-10-16 11:55:00
7:20 AM,53.6,51.8,94,30.16,0.2,Calm,Calm,-,N/A,Fog,Fog,0,2012-10-16 12:20:00
7:45 AM,53.6,53.6,100,30.16,0.1,Calm,Calm,-,N/A,Fog,Fog,0,2012-10-16 12:45:00
8:16 AM,53.6,53.6,100,30.16,0.5,Calm,Calm,-,N/A,Fog,Fog,0,2012-10-16 13:16:00
8:44 AM,55.4,53.6,94,30.17,1.5,Calm,Calm,-,N/A,,Scattered Clouds,0,2012-10-16 13:44:00
9:02 AM,55.4,53.6,94,30.17,0.2,Calm,Calm,-,N/A,Fog,Fog,0,2012-10-16 14:02:00
9:44 AM,59.0,57.2,94,29.86,1.0,Calm,Calm,-,N/A,,Partly Cloudy,0,2012-10-16 14:44:00
9:55 AM,59,57,89,29.90,3,SE,2.2,,,,Overcast,130,2012-10-16 14:55:00
10:04 AM,59.0,57.2,94,30.18,1.0,Calm,Calm,-,N/A,,Overcast,0,2012-10-16 15:04:00
10:47 AM,60.8,59.0,94,30.19,2.5,Calm,Calm,-,N/A,,Overcast,0,2012-10-16 15:47:00
11:09 AM,60.8,59.0,94,30.19,3.0,Calm,Calm,-,N/A,,Overcast,0,2012-10-16 16:09:00
11:47 AM,62.6,57.2,82,30.19,4.0,ESE,5.8,-,N/A,,Overcast,120,2012-10-16 16:47:00
12:00 PM,66.2,59.0,78,30.18,7.0,Calm,Calm,-,N/A,,Mostly Cloudy,0,2012-10-16 17:00:00
12:50 PM,69.8,57.2,64,29.80,10.0,Calm,Calm,-,N/A,,Scattered Clouds,0,2012-10-16 17:50:00
12:55 PM,69,55,52,29.86,12,SE,2.2,,,,Scattered Clouds,130,2012-10-16 17:55:00
1:47 PM,84.2,51.8,33,30.15,10.0,SW,4.6,-,N/A,,Scattered Clouds,230,2012-10-16 18:47:00
2:43 PM,77.0,55.4,47,30.10,10.0,SSE,10.4,-,N/A,,Scattered Clouds,150,2012-10-16 19:43:00
3:46 PM,77.0,55.4,47,29.70,10.0,WSW,6.9,-,N/A,,Mostly Cloudy,240,2012-10-16 20:46:00
3:55 PM,78,53,30,29.73,19,SSW,2.2,,,,Overcast,200,2012-10-16 20:55:00
4:46 PM,69.8,51.8,53,30.08,12.0,SSW,13.8,-,N/A,,Mostly Cloudy,210,2012-10-16 21:46:00
5:46 PM,73.4,51.8,47,30.08,12.0,SSW,16.1,-,N/A,,Mostly Cloudy,210,2012-10-16 22:46:00
6:49 PM,71.6,51.8,50,29.73,12.0,WSW,11.5,-,N/A,,Mostly Cloudy,240,2012-10-16 23:49:00
6:55 PM,72,53,40,29.68,25,WNW,6.7,,,,Partly Cloudy,300,2012-10-16 23:55:00
7:44 PM,68.0,51.8,56,30.11,12.0,WSW,13.8,-,N/A,,Mostly Cloudy,250,2012-10-17 00:44:00
8:48 PM,68.0,51.8,56,30.14,12.0,WSW,11.5,-,N/A,,Scattered Clouds,240,2012-10-17 01:48:00
9:48 PM,64.4,53.6,68,29.84,10.0,SW,11.5,-,N/A,,Partly Cloudy,220,2012-10-17 02:48:00
9:55 PM,65,53,55,29.73,6,WSW,4.5,,,,,240,2012-10-17 02:55:00